Showing default

GONETS D1 2, 23788

Orbit data source: Space-Track

GONETS D1 2, 23788 is a payload satellite owned by Gonets (CIS) in LEO that was launched on Mon, 19 Feb 1996 UTC via a TSIKLON-3 launch vehicle from the Plesetsk Missile And Space Complex (PKMTR). Payload-class satellites include a variety of spacecraft equipped with specific instruments for various scientific and technological missions. These include communications satellites like Starlink; space stations such as the ISS; scientific satellites like the Hubble; Earth observation satellites from companies like Planet Labs, Umbra, and HawkEye 360; GPS; miniature CubeSats for education and research; and military/defense satellites.

Loading next visibility...
Identifier
23788, 1996-009B
Orbit
LEO
Country
Flag of CISCIS
Related business
Manufacturer
NPO PM
Mission
Non-operational Civil Communications
Bus & Motor
STRELA-3, Unknown motor
Mass
225 kg wet, 225 kg dry
Launch date (UTC)
1996-02-19 (30 years ago)
Launch vehicle
TSIKLON-3
Launch site
Plesetsk Missile And Space Complex (PKMTR)
Object type
Payload
Rocket body
Debris
Shape & HBR
Cyl + 1 Ant, 3.5 m
Radar Cross Section
1.798 m², Medium (>0.1 m² and < 1m²)

Expand to show TLE details & history
Last TLE update: 12 hours ago

TLE from 12 hours ago
0 GONETS D1 2
1 23788U 96009B   25260.72213000  .00000035  00000-0  13561-3 0  9999
2 23788  82.5673 118.8564 0006754 334.9209  25.1553 12.63206890363691
Epoch: 2025-09-17T17:19Z
TLE epoch observation values (Epoch: 2025-09-17T17:19:52.032Z)
Latitude
-0.00006°
Longitude
-138.00441°
Altitude
1,407.705 km
Speed
7.159 km/s
True Right ascension
07h 55m 25s
True Declination
0° 00' 00"
Sunlit
Object was in daylight at epoch
Visualization orbit readout
Latitude
Unknown
Longitude
Unknown
Altitude
Unknown
Speed
Unknown
Apparent Right ascension
Unknown
Apparent Declination
Unknown
Sunlit
N/A
Visualization observer readout
Local Sidereal Time
22:16:02
Azimuth
Unknown
Elevation
Unknown
Doppler factor
Unknown
Orbital elements
Apogee altitude
1,412.314 km
Perigee altitude
1,401.798 km
Semi-major axis
7,785.193 km
Eccentricity
0.00068
Inclination
82.5673°
RAAN
118.8564°
Arg. of periapsis
334.9209°
True anomaly
25.18822°
Mean anomaly
25.1553°
Eccentric anomaly
25.17176°
Mean motion
3.15965 °/min
Orbital period
113.94 mins
BSTAR
0.00013561
Loading maneuver chart data...
Computing Atmospheric mass density...
Loading historical data...
Loading historical data...
Loading historical data...
Loading historical data...
Loading historical data...
Loading historical data...
Loading historical data...

Documentation

Showing up to 5 results
|